Flag for Poland Weather past 2 weeks in Radom, Poland

Now
78 °F

Overcast.


Feels Like: 80 °F
Forecast: 67 / 88 °F
Wind: 5 mph from Southeast

Location: Kielce

Current Time: Jul 28, 2014 at 7:29:42 PM

Latest Report: Jul 28, 2014 at 6:00 PM


Visibility: 17 mi

Pressure: 29.85 "Hg

Humidity: 61%

Dew point: 64 °F

Location of RadomLocation

Historic Weather in Radom — Graph

°F

Radom temperature yesterday

Maximum temperature yesterday: 85 °F (at 3:00 PM)
Minimum temperature yesterday: 61 °F (at 5:00 AM)
Average temperature yesterday: 74 °F

Past Weeks' High & Low Weather Summary

 TemperatureHumidityPressure
High85 °F (Jul 20, 4:00 PM)100% (Jul 16, 2:00 AM)30.16 "Hg (Jul 16, 2:00 AM)
Low56 °F (Jul 16, 5:00 AM)34% (Jul 20, 3:00 PM)29.82 "Hg (Jul 21, 5:00 PM)
Average69 °F78%29.99 "Hg
* Reported Jul 13 6:00 PM — Jul 28 6:00 PM, Radom, Weather by CustomWeather, © 2014

Note: Actual official high and low records may vary slightly from our data, if they occured in-between our weather recording intervals... More about our weather records

Advertising

Radom weather history for previous 24 hours

 ConditionsComfort  
Time TempWeatherWind HumidityBarometerVisibility
6:00 PM
Jul 28
78 °FOvercast.5 mph61%29.85 "Hg17 mi
5:00 PM76 °FLight rain. Partly sunny.5 mph64%29.87 "Hg16 mi
4:00 PM77 °FThunderstorms. Partly sunny.8 mph58%29.88 "Hg16 mi
3:00 PM85 °FScattered clouds.6 mph48%29.85 "Hg17 mi
2:00 PM84 °FPartly sunny.5 mph48%29.87 "Hg22 mi
1:00 PM83 °FPartly sunny.3 mph54%29.89 "Hg25 mi
12:00 PM80 °FPartly sunny.6 mph53%29.91 "Hg22 mi
11:00 AM80 °FScattered clouds.5 mph57%29.92 "Hg22 mi
10:00 AM77 °FScattered clouds.5 mph60%29.93 "Hg25 mi
9:00 AM74 °FPassing clouds.5 mph64%29.94 "Hg25 mi
8:00 AM71 °FPassing clouds.2 mph70%29.94 "Hg19 mi
7:00 AM67 °FPassing clouds.2 mph80%29.95 "Hg19 mi
6:00 AM63 °FPassing clouds.1 mph87%29.95 "Hg18 mi
5:00 AM63 °FPassing clouds.1 mph85%29.94 "Hg19 mi
4:00 AM63 °FPassing clouds.1 mph86%29.96 "Hg19 mi
3:00 AM64 °FClear.1 mph87%29.96 "Hg14 mi
2:00 AM66 °FClear.1 mph85%29.96 "Hg16 mi
1:00 AM67 °FClear.2 mph86%29.96 "Hg14 mi
12:00 AM67 °FClear.1 mph89%29.96 "Hg8 mi
11:00 PM
Jul 27
68 °FPassing clouds.2 mph87%29.96 "Hg11 mi
10:00 PM69 °FPassing clouds.1 mph84%29.96 "Hg14 mi
9:00 PM72 °FPassing clouds.1 mph76%29.95 "Hg19 mi
8:00 PM76 °FPassing clouds.3 mph68%29.94 "Hg22 mi
7:00 PM81 °FPassing clouds.3 mph58%29.93 "Hg22 mi
Weather by CustomWeather, © 2014

See weather overviewHow to use our weather pages